Location: Dreilärchen
(47.9312°N, 8.6113°E)
Time: 21:59:12
(UTC+00:00)

SL-16 R/B - Visible Passes

Search period start: 26 February 2024 00:00
Search period end: 07 March 2024 00:00
Orbit: 984 x 1007 km, 99.7° (Epoch: 25 February)

Date Brightness Start Highest point End Pass type
(mag) Time Alt. Az. Time Alt. Az. Time Alt. Az.
26 Feb 5.1 00:34:51 12° N 00:34:51 12° N 00:35:28 10° N visible
27 Feb 5.0 01:05:53 14° N 01:05:53 14° N 01:06:40 10° N visible
27 Feb 5.2 23:51:50 11° NNE 23:51:50 11° NNE 23:52:13 10° NNE visible
28 Feb 4.9 01:36:55 14° N 01:36:55 14° N 01:37:40 10° N visible
28 Feb 5.1 17:35:18 10° NNW 17:37:36 12° NW 17:39:54 10° WNW visible
29 Feb 5.1 00:22:52 14° NNE 00:22:52 14° NNE 00:23:55 10° N visible
29 Feb 4.8 02:07:56 13° NNW 02:07:56 13° NNW 02:08:30 10° NNW visible
01 Mar 4.9 00:53:53 16° N 00:53:53 16° N 00:55:13 10° N visible
01 Mar 4.8 02:38:57 11° NNW 02:38:57 11° NNW 02:39:09 10° NNW visible
01 Mar 5.2 23:39:50 11° NNE 23:39:50 11° NNE 23:40:16 10° NNE visible
02 Mar 4.7 01:24:54 17° N 01:24:54 17° N 01:26:17 10° N visible
03 Mar 5.0 00:10:52 15° NNE 00:10:52 15° NNE 00:12:19 10° N visible
03 Mar 4.6 01:55:55 17° NNW 01:55:55 17° NNW 01:57:11 10° NNW visible
04 Mar 4.8 00:41:52 18° NNE 00:41:52 18° NNE 00:43:43 10° N visible
04 Mar 4.6 02:26:56 15° NNW 02:26:56 15° NNW 02:27:54 10° NNW visible
05 Mar 4.6 01:12:53 21° N 01:12:53 21° N 01:14:53 10° N visible
05 Mar 4.7 02:57:58 12° NNW 02:57:58 12° NNW 02:58:23 10° NNW visible
05 Mar 5.0 23:58:49 14° NNE 23:58:49 14° NNE 00:00:39 10° NNE visible
06 Mar 4.4 01:43:54 21° N 01:43:54 21° N 01:45:50 10° NNW visible
06 Mar 5.3 17:44:03 10° NNW 17:45:35 11° NW 17:47:07 10° WNW visible
